This demonstration page uses our WeatherBlox Daily Observations layout. Learn more.

Left ArrowRight Arrow

39.51506, -84.39828

Hourly Observations for May 24, 2016

Temp ( °F °C ) Dew Point ( °F °C ) Humidity (%) Winds ( mph kmh ) Pressure ( in mb ) Visibility ( mi km ) Precip ( " mm )
12:15 am 00:15 Clear 57 13.7 49 9.6 76 76 N N/A 30.06 1018 10 16.0934 N/A
12:35 am 00:35 Clear 57 13.7 49 9.6 76 76 N N/A 30.06 1018 10 16.0934 N/A
12:55 am 00:55 Clear 55 12.5 47 8.6 77 77 N N/A 30.06 1018 10 16.0934 N/A
1:15 am 01:15 Clear 55 12.5 48 8.7 78 78 N N/A 30.06 1018 10 16.0934 N/A
1:35 am 01:35 Clear 55 12.5 48 8.8 78 78 N N/A 30.06 1018 10 16.0934 N/A
1:55 am 01:55 Clear 55 12.5 48 9 79 79 N N/A 30.06 1018 10 16.0934 N/A
2:15 am 02:15 Clear 55 12.5 48 9 79 79 N N/A 30.06 1018 10 16.0934 N/A
2:35 am 02:35 Clear 55 12.5 48 9.1 80 80 N N/A 30.03 1017 10 16.0934 N/A
2:55 am 02:55 Clear 55 12.5 49 9.2 80 80 N N/A 30.03 1017 10 16.0934 N/A
3:15 am 03:15 Clear 55 12.5 49 9.2 80 80 N N/A 30.03 1017 10 16.0934 N/A
3:35 am 03:35 Clear 55 12.5 49 9.3 81 81 N N/A 30.03 1017 10 16.0934 N/A
3:55 am 03:55 Clear 52 11 46 8 82 82 N N/A 30.03 1017 10 16.0934 N/A
4:15 am 04:15 Clear 53 11.7 47 8.6 81 81 N N/A 30.06 1018 10 16.0934 N/A
4:35 am 04:35 Clear 52 11 46 8 82 82 N N/A 30.06 1018 10 16.0934 N/A
4:55 am 04:55 Clear 52 11 46 8 82 82 N N/A 30.06 1018 10 16.0934 N/A
5:15 am 05:15 Hazy 51 10.5 46 7.6 82 82 N N/A 30.06 1018 5 8.0467 N/A
5:35 am 05:35 Hazy 49 9.7 44 6.9 83 83 N N/A 30.09 1019 2.5 4.02335 N/A
5:55 am 05:55 Mostly Cloudy with Haze 50 10.1 45 7.3 83 83 N N/A 30.09 1019 1.25 2.011675 N/A
6:15 am 06:15 Hazy 50 9.9 45 7.2 83 83 N N/A 30.09 1019 2.5 4.02335 N/A
6:35 am 06:35 Sunny with Mist and Fog 49 9.6 45 7 84 84 N N/A 30.09 1019 5 8.0467 N/A
6:55 am 06:55 Hazy 50 9.8 45 7.3 85 85 N N/A 30.12 1020 3 4.82802 N/A
7:15 am 07:15 Hazy 52 11 47 8.2 83 83 N N/A 30.12 1020 5 8.0467 N/A
7:35 am 07:35 Hazy 55 12.5 49 9.6 83 83 N N/A 30.12 1020 5 8.0467 N/A
7:55 am 07:55 Sunny 57 13.7 52 10.9 83 83 N N/A 30.12 1020 7 11.26538 N/A
8:15 am 08:15 Sunny 57 14 51 10.7 81 81 N N/A 30.12 1020 7 11.26538 N/A
8:35 am 08:35 Sunny 60 15.3 52 11.1 76 76 N N/A 30.12 1020 7 11.26538 N/A
8:55 am 08:55 Sunny 62 16.5 53 11.6 73 73 N N/A 30.09 1019 7 11.26538 N/A
9:15 am 09:15 Sunny 65 18.6 53 11.5 64 64 S 3 6 30.09 1019 10 16.0934 N/A
9:35 am 09:35 Sunny 69 20.8 54 12 57 57 S 3 6 30.12 1020 10 16.0934 N/A
9:55 am 09:55 Sunny 69 20.8 52 11.1 54 54 S 3 6 30.12 1020 10 16.0934 N/A
10:15 am 10:15 Sunny 71 21.9 51 10.7 49 49 S 6 9 30.09 1019 10 16.0934 N/A
10:35 am 10:35 Sunny 74 23.6 53 11.9 48 48 SW 3 6 30.09 1019 10 16.0934 N/A
10:55 am 10:55 Sunny 74 23.6 51 10.3 43 43 N N/A 30.09 1019 10 16.0934 N/A
11:15 am 11:15 Sunny 74 23.6 49 9.2 40 40 S 7 11 30.12 1020 10 16.0934 N/A
11:35 am 11:35 Sunny 76 24.6 48 8.9 37 37 WSW 3 6 30.09 1019 10 16.0934 N/A
11:55 am 11:55 Sunny 77 25.1 44 6.9 31 31 SSW 9 15 30.09 1019 10 16.0934 N/A
12:15 pm 12:15 Sunny 77 25.1 43 6.2 30 30 S 6 9 30.09 1019 10 16.0934 N/A
12:35 pm 12:35 Sunny 77 25.1 44 6.5 30 30 SSW 9 15 30.09 1019 10 16.0934 N/A
12:55 pm 12:55 Sunny 77 25.1 41 4.9 27 27 S 9 15 30.09 1019 10 16.0934 N/A
1:15 pm 13:15 Sunny 78 25.3 39 3.9 25 25 S 8 13 30.09 1019 10 16.0934 N/A
1:35 pm 13:35 Sunny 80 26.5 40 4.5 24 24 SSW 8 13 30.09 1019 10 16.0934 N/A
1:55 pm 13:55 Sunny 80 26.5 37 3 22 22 SSW 5 7 30.09 1019 10 16.0934 N/A
2:15 pm 14:15 Sunny 80 26.5 33 0.6 18 18 SSW 6 9 30.09 1019 10 16.0934 N/A
2:35 pm 14:35 Sunny 80 26.5 33 0.3 18 18 S 8 13 30.06 1018 10 16.0934 N/A
2:55 pm 14:55 Sunny 80 26.5 36 2.4 21 21 SSW 8 13 30.06 1018 10 16.0934 N/A
3:15 pm 15:15 Sunny 80 26.5 33 0.8 19 19 SW 8 13 30.06 1018 10 16.0934 N/A
3:35 pm 15:35 Sunny 81 27.1 32 0.1 17 17 WSW 8 13 30.06 1018 10 16.0934 N/A
3:55 pm 15:55 Sunny 81 27.2 36 2.2 20 20 SW 8 13 30.06 1018 10 16.0934 N/A
4:15 pm 16:15 Sunny 81 27.2 32 -0.2 17 17 S 8 13 30.06 1018 10 16.0934 N/A
4:35 pm 16:35 Sunny 81 27.2 33 0.6 18 18 SSW 10 17 30.06 1018 10 16.0934 N/A
4:55 pm 16:55 Sunny 81 27.2 33 0.3 17 17 S 6 9 30.03 1017 10 16.0934 N/A
5:15 pm 17:15 Sunny 81 27.2 28 -2.1 14 14 SE 3 6 30.03 1017 10 16.0934 N/A
5:35 pm 17:35 Sunny 81 27.2 28 -2.1 14 14 N N/A 30.03 1017 10 16.0934 N/A
5:55 pm 17:55 Sunny 81 27.4 32 undefined 17 17 S 6 9 30.03 1017 10 16.0934 N/A
6:15 pm 18:15 Sunny 81 27.2 33 0.5 18 18 SSW 7 11 30.03 1017 10 16.0934 N/A
6:35 pm 18:35 Sunny 81 27.2 31 -0.6 16 16 SSW 7 11 30.03 1017 10 16.0934 N/A
6:55 pm 18:55 Sunny 80 26.8 37 2.9 21 21 SSW 6 9 30.03 1017 10 16.0934 N/A
7:15 pm 19:15 Sunny 80 26.5 35 1.4 20 20 SSW 7 11 30.03 1017 10 16.0934 N/A
7:35 pm 19:35 Sunny 80 26.5 39 4 23 23 SSW 8 13 30.03 1017 10 16.0934 N/A
7:55 pm 19:55 Sunny 77 25.1 38 3.3 24 24 S 5 7 30.03 1017 10 16.0934 N/A
8:15 pm 20:15 Sunny 77 25.1 39 3.8 25 25 SSW 5 7 30.06 1018 10 16.0934 N/A
8:35 pm 20:35 Sunny 74 23.6 48 9.1 40 40 N N/A 30.03 1017 10 16.0934 N/A
8:55 pm 20:55 Clear 69 20.8 53 11.8 57 57 N N/A 30.06 1018 10 16.0934 N/A
9:15 pm 21:15 Clear 67 19.5 54 12 62 62 N N/A 30.06 1018 10 16.0934 N/A
9:35 pm 21:35 Clear 67 19.5 55 12.5 64 64 N N/A 30.06 1018 10 16.0934 N/A
9:55 pm 21:55 Clear 64 18 51 10.7 63 63 N N/A 30.06 1018 10 16.0934 N/A
10:15 pm 22:15 Clear 62 16.6 51 10.5 67 67 N N/A 30.06 1018 10 16.0934 N/A
10:35 pm 22:35 Clear 61 16 51 10.4 70 70 N N/A 30.09 1019 10 16.0934 N/A
10:55 pm 22:55 Clear 60 15.4 51 10.3 72 72 N N/A 30.09 1019 10 16.0934 N/A
11:15 pm 23:15 Clear 61 16 50 10.1 68 68 N N/A 30.12 1020 10 16.0934 N/A
11:35 pm 23:35 Clear 60 15.4 50 9.8 69 69 N N/A 30.12 1020 10 16.0934 N/A
11:55 pm 23:55 Clear 60 15.3 51 10.5 73 73 N N/A 30.09 1019 10 16.0934 N/A

Powered by AerisWeather